Regional Weather Roundup
Issued by NWS Albany, NY

Home | Current Version | Previous Version | Text Only | Print | Product List | Glossary On
Versions: 1 2 3 4 5 6 7 8 9 10 11 12 13 14 15 16 17 18 19 20 21 22 23 24 25 26 27 28 29 30 31 32 33 34 35 36 37 38 39 40 41 42 43 44 45 46 47 48 49 50
064
ASUS41 KALY 100110
RWRALY

NEW YORK STATE HOURLY WEATHER ROUNDUP
NATIONAL WEATHER SERVICE ALBANY NY
800 PM EST FRI DEC 09 2016

NOTE: "FAIR" INDICATES FEW OR NO CLOUDS BELOW 12,000 FEET WITH NO
SIGNIFICANT WEATHER AND/OR NO OBSTRUCTIONS TO VISIBILITY.

NYZ032-033-038>043-046>054-057>066-NYZ062>081-082-084-100200-
EAST


CITY           SKY/WX    TMP DP  RH WIND       PRES   REMARKS
ALBANY         PTCLDY    24  14  65 W9        30.23R WCI  14
GLENS FALLS    CLOUDY    27   8  44 NW13G20   30.21R WCI  16
POUGHKEEPSIE   PTCLDY    27  10  49 W7        30.24R WCI  19
NEWBURGH       PTCLDY    27  16  63 NW12G18   30.25R WCI  16
MONTGOMERY     PTCLDY    27  11  51 W7        30.24R WCI  19
WHITE PLAINS   CLEAR     29  11  47 NW20G28   30.22R WCI  16
ISLIP          PTCLDY    30  13  49 NW12G22   30.23R WCI  20
NEW YORK CITY  PTCLDY    34  15  46 NW22G35   30.26R WCI  22
CENTRAL PARK   CLEAR     32  12  43 NW12G22   30.28R WCI  23
$$

NYZ005>009-017-018-044>046-055-056-100200-
CENTRAL


CITY           SKY/WX    TMP DP  RH WIND       PRES   REMARKS
FULTON         CLOUDY    27  15  61 NW13G21   30.27R WCI  16
SYRACUSE       LGT SNOW  24  23  96 W6        30.27R FOG     WCI  17
ROME           CLEAR     15  14  95 CALM      30.27R
ELMIRA         CLEAR     24  13  62 SW3       30.26R
BINGHAMTON     CLOUDY    20  13  74 W8        30.18R WCI  10
MONTICELLO     CLEAR     19  10  68 W8        30.20R WCI   9
$$

NYZ026>034-041>043-087-100200-
NORTH


CITY           SKY/WX    TMP DP  RH WIND       PRES   REMARKS
WATERTOWN      CLEAR     20  10  65 NW5       30.27R WCI  13
FORT DRUM      NOT AVBL
OGDENSBURG     FAIR      22  13  68 NW8       30.26S WCI  12
MASSENA        CLEAR     21  10  62 W9        30.26S WCI  11
SARANAC LAKE   MOCLDY    13   7  77 VRB6      30.10S WCI   4
PLATTSBURGH    PTCLDY    22   6  50 NW10G18   30.19R WCI  11
$$

NYZ001>004-010>016-019>021-085-100200-
WEST


CITY           SKY/WX    TMP DP  RH WIND       PRES   REMARKS
NIAGARA FALLS  CLOUDY    29  17  61 W10       30.31R WCI  20
BUFFALO        FLURRIES  28  17  63 W9        30.31R WCI  19
DUNKIRK        CLOUDY    30  18  60 NW17G25   30.32R WCI  18
JAMESTOWN      CLOUDY    25  19  80 W8        30.26S WCI  16
WELLSVILLE     LGT SNOW  24  18  77 NW13      30.22S WCI  12
ROCHESTER      LGT SNOW  26  23  88 W8        30.30R FOG     WCI  18
PENN YAN       FLURRIES  27  14  58 W9        30.26R WCI  18
$$

             KEY
       WCI = WIND CHILL INDEX
       VSB = VISIBILITY
       HX  = HEAT INDEX
$$




USA.gov is the U.S. government's official web portal to all federal, state and local government web resources and services.